Theta_e
313 313 313 313 313 312 312 311 311 310 309 309 307 311 306 305 302 311 312 313 311 305 299 301 300 298 298 300 300 300 298 297 298 297 298 296 297 296 296 295 294 295 294 294 293 294 292 293 292 293 294 294 296 298 298 299 297 297 299 299 301 301 296 294 295 299 302 304 306 306 306 305 304 306 307 306 303 306 305 304 306 303 304 301 301 298 303
313 313 313 313 313 311 312 311 311 311 309 309 309 307 305 304 304 306 311 313 311 303 296 295 296 297 299 298 297 300 299 298 297 296 297 297 296 295 295 296 296 294 296 295 292 295 289 293 292 293 295 293 299 298 298 299 297 295 298 295 300 293 297 295 293 294 296 299 303 303 306 306 304 304 306 306 305 305 305 305 307 302 304 304 301 295 302
313 313 313 313 312 311 311 311 311 311 311 311 310 304 304 305 306 306 307 311 308 299 300 298 297 296 296 296 295 296 297 298 298 298 296 299 297 296 295 296 297 296 297 294 295 295 292 290 295 293 294 294 299 298 298 299 297 298 301 300 301 294 294 294 290 288 287 287 289 293 297 300 303 305 302 303 303 304 302 299 303 296 304 305 302 303 310
313 313 313 313 312 311 311 311 311 311 311 309 310 306 305 303 299 304 305 306 304 303 304 301 299 297 296 295 295 296 295 298 299 299 297 299 298 298 297 298 298 296 295 294 292 293 296 292 291 293 292 294 297 298 298 298 298 299 301 301 300 294 295 295 294 293 292 294 294 296 298 299 299 300 301 301 302 303 304 305 302 299 303 302 305 306 308
313 313 313 312 312 311 311 311 311 311 310 309 309 309 305 305 299 298 297 304 303 300 300 299 299 297 297 293 295 293 294 295 297 299 295 298 297 297 297 296 294 294 294 293 292 294 293 296 294 293 293 295 296 298 298 297 298 298 299 301 298 295 292 293 294 294 295 296 295 296 296 294 296 297 298 300 300 302 302 301 300 308 304 298 307 310 306
313 313 313 312 312 311 312 311 311 311 310 308 312 305 306 299 300 303 301 296 293 297 296 299 298 298 298 295 296 294 293 294 293 297 298 298 299 295 297 296 296 295 294 294 291 293 293 294 292 295 295 294 297 295 298 296 298 298 298 300 297 293 289 293 294 293 295 296 295 296 296 296 297 297 297 298 300 300 300 302 305 305 301 300 308 310 308
313 313 313 313 312 312 312 312 311 310 310 309 312 305 306 304 303 301 303 297 298 298 297 298 297 296 297 295 295 293 293 292 294 295 295 296 296 297 292 293 295 295 297 295 292 294 289 290 295 293 294 294 294 293 296 297 298 298 297 298 299 295 291 293 294 293 294 295 296 297 295 296 296 297 298 299 300 300 301 301 303 303 304 306 306 308 308
313 313 313 313 313 312 313 312 311 311 308 312 309 305 302 298 298 298 302 302 299 299 299 297 296 295 296 294 294 294 293 292 295 297 295 293 294 298 294 294 296 295 296 296 293 294 295 294 291 295 294 294 295 294 295 294 298 298 295 295 299 293 291 294 293 291 291 293 296 296 296 295 294 296 298 299 300 300 301 301 302 303 303 305 306 307 308
313 313 313 313 313 312 313 312 312 311 310 309 305 304 305 304 305 303 299 296 297 299 298 297 296 294 295 294 294 294 294 293 295 295 298 296 293 295 293 295 296 297 296 296 295 297 297 297 297 298 297 292 297 293 294 297 294 296 294 295 295 295 291 294 292 288 289 293 294 295 296 296 295 295 297 298 298 298 300 300 303 302 303 308 309 308 308
313 313 313 314 314 312 312 312 312 311 310 308 307 301 308 306 306 306 302 296 299 297 298 298 297 292 294 295 294 293 294 296 296 294 297 298 299 298 296 297 296 295 294 293 296 299 299 300 300 300 301 301 299 299 298 297 295 294 294 296 293 294 292 290 290 287 288 293 294 294 294 294 292 294 297 299 300 301 303 304 314 312 313 307 306 308 319
313 313 314 314 313 313 314 313 314 312 314 308 307 305 306 303 302 303 302 296 297 298 297 296 295 295 296 296 295 297 296 296 297 292 293 297 297 299 299 297 295 294 294 298 302 303 303 303 302 303 301 300 299 299 299 299 298 297 295 294 294 295 292 290 293 286 288 292 293 295 291 286 288 303 306 304 301 301 300 303 311 312 313 311 315 316 318
313 313 313 313 314 314 314 314 313 310 311 313 311 307 309 310 307 305 300 294 294 298 297 294 295 296 296 296 296 295 295 295 296 298 294 296 298 299 298 298 298 294 301 305 305 304 304 304 302 302 301 299 299 298 298 297 298 301 299 295 293 292 292 291 293 288 287 291 292 288 284 287 300 307 308 308 307 306 304 311 310 310 313 313 314 315 316
313 313 313 313 314 314 314 314 314 311 310 315 313 307 310 312 307 303 300 297 294 297 296 296 298 298 298 297 296 297 298 298 298 299 298 297 297 298 299 298 297 298 305 303 303 301 297 295 296 297 296 297 297 298 297 296 296 298 299 299 295 292 291 291 290 291 291 289 288 280 284 299 302 305 307 310 311 311 311 306 308 310 311 313 313 314 315
313 314 313 314 314 314 314 314 313 314 311 312 313 312 312 311 306 304 301 297 296 299 299 298 297 296 297 297 297 297 298 298 299 299 296 299 297 298 300 301 302 305 305 305 302 300 295 296 292 292 293 295 294 292 295 297 297 297 297 298 298 295 293 292 288 292 285 287 288 288 296 295 298 303 305 308 305 308 307 301 303 309 311 311 310 312 313
313 313 313 314 314 314 314 314 315 314 313 309 316 314 314 312 309 306 305 301 295 298 300 294 297 298 298 298 298 297 297 297 295 296 300 301 299 301 301 303 305 304 305 301 298 299 295 293 288 287 289 287 282 284 291 290 298 299 299 299 299 298 291 294 288 288 291 286 285 287 287 284 292 304 307 310 309 310 310 308 302 308 310 311 311 310 311
313 313 313 314 314 314 314 314 314 313 312 308 315 314 315 314 313 311 306 301 298 292 298 302 302 299 298 298 297 295 294 295 295 296 297 299 299 301 303 305 305 305 303 299 299 296 294 289 286 286 284 286 289 287 286 291 289 297 299 299 299 299 297 294 290 288 289 287 284 283 282 288 302 304 306 310 310 311 312 307 300 305 309 311 310 308 309
313 313 313 314 314 314 314 314 314 312 313 309 313 313 312 315 312 309 305 303 301 297 304 304 302 300 299 299 299 296 297 294 295 292 293 295 298 299 301 304 306 303 301 298 297 294 291 290 290 289 290 291 287 287 289 288 286 287 296 298 296 295 295 293 288 287 288 287 285 283 289 288 299 303 306 310 311 308 308 295 294 303 309 309 309 307 307
313 313 314 314 314 314 314 314 314 314 312 310 313 313 313 316 316 313 307 303 299 299 304 305 301 298 297 298 296 299 299 298 297 298 295 298 299 298 299 301 299 302 302 293 294 291 290 289 286 286 285 292 293 291 282 288 283 285 286 288 289 291 293 293 287 287 287 286 287 289 291 298 302 304 307 310 312 309 296 290 298 306 309 309 309 308 308
313 313 314 313 313 313 314 314 313 313 314 310 316 313 314 316 316 314 308 303 301 298 305 307 306 303 304 304 301 301 300 299 298 293 294 294 298 301 301 300 300 293 299 293 294 290 288 288 291 291 289 291 293 286 292 287 285 290 288 285 287 290 290 292 292 288 286 287 285 286 291 299 307 307 308 312 306 294 293 302 308 309 309 310 309 308 308
313 313 313 313 313 313 314 314 313 313 314 310 312 311 313 316 316 314 307 302 304 301 305 306 307 304 306 302 299 298 299 299 299 296 295 291 300 301 297 293 298 298 296 296 288 293 289 285 288 294 289 290 292 295 290 291 294 286 286 289 286 288 286 287 288 292 290 288 286 285 281 296 306 306 305 308 300 300 302 306 308 310 309 309 309 308 308
313 313 313 313 313 313 314 314 313 313 313 312 310 311 310 315 316 315 315 309 303 299 304 310 309 308 308 306 306 305 303 299 300 297 300 299 301 297 287 288 292 293 290 292 287 288 290 287 291 290 295 292 292 292 286 288 288 296 292 288 287 293 284 287 289 294 286 285 284 285 293 303 306 305 299 303 305 307 307 307 307 309 310 310 309 309 310
313 313 313 313 313 313 314 313 313 314 314 313 310 314 309 314 315 315 315 313 305 302 306 310 310 309 311 312 312 311 309 308 308 307 301 299 302 300 299 298 297 296 296 296 292 291 293 291 292 290 288 291 296 290 293 287 284 291 296 293 283 292 287 288 285 295 291 289 292 298 301 304 304 305 305 305 307 308 309 308 307 308 308 311 312 308 308
312 313 313 313 313 313 313 313 313 314 313 314 313 313 309 312 313 316 314 306 309 309 310 310 311 311 312 313 314 315 314 315 312 310 308 301 298 302 300 299 298 301 300 299 292 292 293 293 290 293 290 291 288 290 292 291 288 292 287 294 293 295 295 296 294 292 298 299 301 302 302 302 302 304 307 307 306 308 309 308 308 309 309 310 308 308 309
312 313 313 313 313 313 313 313 313 314 314 314 313 313 311 312 315 312 311 308 303 301 308 310 308 305 307 308 311 314 314 314 314 314 314 309 298 298 304 304 303 301 300 300 304 294 293 293 292 294 287 293 295 290 287 286 289 293 292 291 294 296 296 293 289 295 292 288 301 301 300 300 301 303 307 308 310 309 309 309 309 310 309 310 309 309 310
312 313 313 313 313 313 313 313 313 313 314 313 314 315 315 313 314 313 307 302 303 301 298 304 307 309 312 314 315 313 314 316 316 315 313 311 307 301 300 305 305 300 299 301 303 298 296 289 291 290 286 295 294 287 294 289 289 295 288 291 292 291 299 293 292 292 292 294 300 301 302 302 302 304 305 305 305 305 306 307 310 311 311 311 311 310 309
312 312 313 313 313 313 313 313 313 313 313 313 314 314 311 311 315 315 312 309 308 304 299 301 305 313 314 312 309 311 315 315 314 313 312 312 311 310 308 309 308 309 306 307 303 297 295 294 293 292 288 289 297 291 291 294 292 295 291 290 294 295 298 289 295 293 297 299 298 299 300 301 302 303 304 304 304 305 307 308 308 308 309 310 312 312 310
312 312 313 312 312 312 312 312 312 313 312 312 313 314 313 314 315 312 309 307 304 301 302 301 305 309 311 307 310 313 314 314 314 313 312 312 311 311 310 310 308 308 306 304 305 301 297 294 292 289 292 291 295 292 293 294 294 292 291 295 297 293 291 295 294 291 291 292 296 298 292 293 302 303 303 305 308 307 305 306 307 307 307 309 309 311 311
312 312 312 313 312 312 312 312 313 313 311 312 313 314 315 313 314 315 315 312 306 300 300 300 301 306 310 308 310 312 312 313 313 312 312 311 311 309 308 307 307 306 306 303 297 297 296 292 290 295 295 295 292 291 297 297 296 293 293 292 294 289 290 291 287 290 290 297 300 301 300 299 300 302 305 306 308 308 307 306 305 306 307 308 308 309 310
312 312 312 312 312 312 312 312 312 312 312 310 314 313 313 315 316 315 315 315 313 307 303 302 304 306 301 305 311 313 312 311 311 312 312 312 310 308 308 307 307 305 305 303 301 299 296 295 297 293 290 297 292 289 292 288 288 286 290 293 294 294 297 296 295 297 298 300 300 302 301 299 302 305 307 308 310 308 306 308 307 306 306 306 307 309 310
312 312 312 312 312 312 312 312 312 312 311 314 312 311 310 312 314 314 314 314 314 310 302 300 297 305 311 309 308 310 310 311 310 309 309 309 309 309 309 308 309 309 306 303 302 297 297 297 298 300 300 301 292 290 287 289 287 290 295 294 295 297 298 301 301 297 297 302 303 303 303 304 305 306 307 309 310 309 307 308 308 307 307 307 308 309 312
312 312 312 312 312 312 311 311 311 311 311 314 312 308 308 306 312 316 313 315 315 309 305 303 299 306 305 310 308 310 310 311 311 308 307 309 308 309 309 311 310 309 306 305 303 301 303 298 297 297 302 301 297 290 288 287 286 288 292 293 295 296 297 299 302 303 303 302 304 304 304 305 306 307 307 308 309 310 309 309 309 310 309 309 308 310 311
312 312 312 312 312 312 312 311 311 311 313 314 312 312 312 312 316 317 314 315 315 308 302 299 300 301 302 306 310 314 311 313 313 312 312 312 309 311 311 311 309 312 308 304 303 303 301 303 301 299 297 299 297 291 289 288 286 286 293 295 297 298 299 300 300 302 305 306 304 302 303 304 306 305 304 308 309 309 310 310 310 310 310 309 308 309 311
312 311 311 311 311 312 312 311 311 311 314 314 311 310 310 308 310 313 314 316 312 307 306 301 299 302 300 304 309 311 312 313 309 311 307 312 309 312 309 313 312 311 309 306 301 299 302 303 301 299 301 301 295 291 289 287 288 295 296 297 297 298 299 301 302 303 303 304 305 302 301 303 305 307 308 309 310 310 309 310 311 311 310 308 307 308 311
310 310 310 311 312 312 311 311 311 310 310 311 313 315 318 310 312 311 316 316 310 309 307 302 300 300 302 311 303 311 315 308 306 308 304 310 312 310 307 308 309 305 305 305 303 304 303 303 298 298 301 297 297 290 287 290 295 296 297 298 299 299 300 300 300 300 302 303 304 305 306 308 308 309 309 308 309 310 310 310 310 308 308 308 307 309 310
309 310 311 311 312 312 311 310 311 311 314 314 315 319 317 311 312 314 315 313 304 303 303 304 303 300 301 303 302 305 316 310 306 309 305 306 311 307 308 304 305 298 300 312 304 303 300 299 303 295 290 298 291 287 288 291 295 296 296 297 298 299 299 297 298 300 301 303 303 303 305 307 307 306 306 306 307 308 308 308 309 308 307 308 309 308 311
311 311 312 312 311 312 313 312 314 314 313 314 315 313 312 313 314 318 317 316 309 303 302 302 302 299 300 296 297 305 313 307 311 310 308 307 305 310 309 305 298 302 310 305 297 300 297 303 300 290 296 290 287 290 292 297 296 296 296 296 297 298 297 298 298 300 301 302 303 303 304 304 304 305 306 307 308 307 307 307 308 309 308 308 309 309 308
312 312 312 312 314 315 314 316 317 316 315 317 316 316 315 316 316 316 313 310 312 312 304 303 300 303 304 302 306 310 311 301 309 306 303 302 302 307 305 301 297 303 304 300 300 298 300 308 298 291 290 288 290 297 299 299 298 298 298 298 299 300 300 300 301 301 300 300 301 301 301 301 302 303 304 305 307 308 308 307 307 307 306 307 309 309 309
312 312 316 316 316 315 315 315 316 317 316 314 315 312 310 310 305 305 306 304 308 307 305 304 301 305 310 306 301 311 307 301 309 303 305 308 302 300 306 301 302 303 292 297 299 305 302 299 293 291 290 297 299 299 301 301 301 302 302 300 300 301 301 301 301 299 297 296 297 298 300 300 300 301 302 303 305 306 307 308 309 310 310 309 309 309 309
311 316 317 318 317 316 314 315 317 316 315 316 315 308 306 310 308 304 306 307 305 302 307 304 302 306 305 304 306 314 308 305 303 306 301 308 303 298 305 296 301 302 293 295 296 305 292 293 294 292 290 296 296 299 302 303 304 304 303 301 302 302 302 301 301 299 297 297 298 300 300 298 298 300 302 303 305 306 307 307 308 309 310 311 312 312 310
317 317 318 318 316 315 316 316 314 315 314 309 311 309 305 309 303 297 310 301 301 307 307 301 307 307 308 303 303 306 314 308 301 299 301 305 308 300 302 302 303 299 289 289 295 304 292 286 289 289 288 294 296 300 301 302 303 304 304 304 303 302 302 301 302 302 302 302 302 302 303 303 303 303 302 303 303 303 305 306 306 307 308 309 311 311 311
319 320 318 317 316 315 315 316 316 314 310 308 309 309 305 296 306 306 304 300 299 300 308 304 306 305 310 310 309 305 316 314 313 312 309 301 309 310 302 296 306 296 291 290 300 300 294 288 288 288 290 296 297 300 301 301 302 304 305 305 305 303 303 303 302 302 301 301 302 302 303 303 304 303 303 303 303 304 305 305 306 306 307 307 307 308 310
321 320 320 321 319 318 316 314 312 310 311 311 302 293 298 301 305 304 304 295 296 300 304 305 300 303 302 306 305 310 312 318 314 311 306 300 306 303 299 300 301 292 288 297 302 297 293 286 287 288 295 298 299 301 301 300 301 302 303 305 304 304 303 302 302 302 303 302 301 301 302 303 303 303 303 303 303 304 304 305 306 306 307 308 308 309 310
307 314 320 319 317 315 316 305 312 309 294 293 293 290 297 293 297 296 298 303 307 303 303 311 309 310 312 316 312 314 310 313 307 306 306 300 308 304 298 296 295 289 296 303 298 292 287 286 286 291 298 299 302 302 302 301 301 302 303 305 305 304 303 303 302 302 302 303 303 302 302 302 302 303 304 304 303 303 304 305 306 306 306 306 307 308 309
320 319 317 318 311 315 313 291 307 304 293 295 293 289 295 294 297 299 297 297 300 301 304 301 303 304 302 310 308 306 310 309 309 307 305 306 301 297 297 291 293 299 302 297 294 287 288 291 291 293 297 300 300 303 303 301 301 301 302 303 304 304 303 303 303 303 303 303 303 303 303 303 303 303 304 304 303 302 302 303 305 306 306 305 305 306 308
317 314 306 306 298 303 297 288 303 295 289 294 296 297 297 294 296 298 296 302 303 300 305 305 305 306 304 310 310 311 306 303 315 303 297 300 297 298 295 293 299 299 292 289 291 292 291 289 296 297 298 299 299 302 305 303 302 301 301 302 303 303 303 302 302 302 302 302 302 302 302 302 302 302 302 303 304 303 303 303 304 304 304 304 304 304 306
315 303 299 294 288 295 296 291 293 291 299 300 299 300 300 300 301 300 304 305 303 304 303 304 305 306 305 309 304 302 305 305 301 302 301 301 295 292 299 302 300 293 291 289 286 285 287 292 295 296 299 300 299 302 304 304 304 303 302 299 301 302 303 302 302 302 302 302 303 302 302 302 301 301 301 302 303 303 303 304 304 304 304 303 303 303 304
309 310 302 298 292 296 305 293 296 300 301 302 304 303 303 303 304 305 307 307 305 305 305 307 306 307 302 304 304 306 306 304 299 302 302 296 294 297 302 296 290 291 286 283 284 286 290 294 297 298 298 298 300 303 302 304 305 304 302 301 302 302 302 302 301 301 302 303 303 302 302 302 302 302 302 301 302 303 304 304 305 305 304 303 304 304 304
300 306 304 292 290 295 295 300 304 305 306 305 304 305 305 305 304 303 305 305 306 306 303 303 302 303 306 310 307 301 302 302 297 299 300 296 298 293 289 290 289 290 290 286 286 292 293 297 298 300 299 302 301 301 300 303 304 304 304 303 301 300 301 301 301 301 302 302 302 302 302 303 302 302 301 301 302 302 303 304 304 305 305 305 304 304 303
313 300 297 296 302 303 302 304 304 301 303 305 305 304 305 304 303 303 304 306 305 304 305 304 302 302 299 301 300 299 297 301 293 291 299 295 290 286 286 283 284 283 291 293 292 294 296 298 300 300 300 299 299 300 300 302 302 301 301 302 301 302 301 300 301 302 302 302 302 301 302 303 303 302 302 302 301 301 303 304 304 304 304 303 304 304 303
302 300 305 300 303 305 306 306 304 300 303 303 304 303 305 304 303 304 307 304 306 306 307 308 307 300 299 299 292 296 295 298 296 294 293 290 290 291 288 283 285 286 290 294 295 297 299 300 303 301 299 299 300 300 300 301 302 301 301 301 302 301 301 301 301 302 301 302 303 304 303 303 302 302 302 301 301 302 303 303 303 303 303 304 304 303 304
310 302 303 310 304 304 305 300 300 299 300 301 302 303 305 303 303 304 307 306 305 305 304 299 299 298 293 292 291 288 291 299 294 292 291 290 292 291 286 284 289 292 294 297 299 301 301 303 302 300 299 299 299 300 301 302 302 301 301 302 302 301 301 302 301 301 302 301 302 302 302 302 302 303 303 303 302 302 302 302 303 303 303 304 303 303 303
300 298 303 308 310 309 308 307 308 305 306 305 308 307 306 304 306 308 309 308 306 302 299 302 299 294 290 289 292 297 299 295 291 292 290 292 294 290 290 291 293 295 296 296 298 300 301 304 304 302 300 299 300 301 301 302 302 301 301 301 301 301 301 301 301 301 301 301 301 302 303 303 303 303 303 303 302 301 299 300 302 303 303 303 303 303 303
Wind_Speed
16 17 17 17 17 17 17 17 18 18 20 13 11 10 4 5 4 5 12 14 11 5 6 2 3 4 5 5 5 3 3 3 2 1 1 3 1 2 2 3 5 2 5 5 8 5 6 5 6 5 3 4 3 6 7 8 8 9 4 7 3 7 6 7 10 10 15 17 9 5 6 5 7 9 4 4 12 15 12 10 4 7 11 13 11 12 7
16 15 15 15 15 15 16 16 16 16 15 11 11 7 4 4 4 4 10 15 8 5 4 3 4 5 5 3 7 5 7 4 4 3 4 5 0 3 2 3 1 6 2 5 7 4 6 5 3 5 3 4 7 3 4 6 7 7 6 6 9 7 4 8 8 9 10 14 9 9 2 6 11 12 7 3 2 2 6 4 3 8 10 11 10 12 7
15 14 14 13 13 14 15 15 15 15 13 11 9 6 4 5 4 1 7 11 10 6 4 3 4 4 4 4 4 4 3 6 6 5 5 2 2 5 1 4 3 4 2 5 5 4 5 7 3 5 6 6 4 2 2 5 7 4 8 8 8 8 7 5 11 13 14 16 17 13 12 14 10 4 2 6 6 7 3 13 7 7 7 9 9 7 3
14 14 13 12 12 13 14 14 15 15 13 12 8 5 5 5 5 5 4 6 7 8 4 5 3 4 4 4 3 1 3 5 4 4 4 5 1 3 1 1 3 3 5 6 5 5 3 5 5 5 6 5 3 2 4 4 7 7 8 8 8 6 8 8 9 11 9 5 9 8 6 7 7 9 9 4 6 3 7 8 15 17 12 12 11 10 7
14 14 14 12 11 12 13 13 15 15 14 10 8 5 3 4 4 6 6 1 7 7 7 6 3 2 4 1 1 2 1 1 4 5 3 3 2 1 3 3 4 1 6 4 6 4 6 5 6 7 8 5 6 3 6 7 7 3 7 6 6 6 7 9 12 16 16 13 12 12 12 11 11 8 6 5 5 6 8 13 14 1 6 12 9 9 12
15 14 14 13 10 12 12 13 14 15 15 15 8 4 5 2 3 5 3 4 6 6 7 6 5 4 1 3 2 1 0 1 0 4 3 1 0 6 3 3 2 4 5 5 6 3 5 7 9 5 5 7 6 6 4 6 1 2 8 2 5 6 8 8 10 13 16 14 13 11 10 10 11 11 10 10 6 7 12 11 14 5 9 12 5 4 7
15 14 14 14 11 11 12 12 13 14 16 15 6 5 5 4 3 5 4 1 5 6 5 5 4 4 3 4 1 2 1 2 3 4 1 2 1 3 4 1 3 4 3 5 6 5 7 4 1 4 6 7 8 8 7 5 2 5 5 6 4 6 8 9 8 13 16 16 14 12 14 12 13 13 13 12 12 11 11 11 11 12 10 7 10 12 11
14 14 13 14 11 11 11 12 12 13 18 15 4 7 4 5 4 3 4 5 5 5 4 3 1 4 2 1 3 1 1 3 2 1 4 2 1 2 5 3 4 4 4 4 6 4 5 7 8 5 6 8 7 7 8 7 5 4 6 4 4 4 6 8 10 11 13 14 13 12 14 14 16 15 15 14 13 12 11 11 12 12 13 12 12 12 13
13 13 13 13 11 9 10 11 11 12 15 5 7 7 6 4 4 2 4 3 4 4 5 4 3 3 2 1 3 1 1 3 3 4 2 5 3 2 4 5 6 4 4 5 6 5 5 6 8 9 9 9 6 6 4 5 7 6 7 6 6 5 8 8 8 9 10 9 8 10 11 15 16 17 17 16 15 14 12 11 12 13 12 10 11 11 10
13 13 12 12 10 8 8 9 9 10 14 4 4 7 4 2 3 2 3 2 2 3 3 5 1 4 4 3 2 1 2 2 5 3 3 3 1 4 5 6 6 5 6 6 4 4 6 8 10 10 10 11 11 11 12 12 10 9 9 8 9 7 7 8 7 8 9 9 7 8 9 9 13 16 17 16 15 13 12 10 2 1 2 10 12 10 5
13 13 12 12 10 10 9 7 7 8 8 6 4 5 5 4 4 3 2 1 4 4 3 5 5 4 2 2 2 2 3 3 2 5 2 2 3 2 6 8 7 6 5 4 4 6 10 11 12 11 13 14 15 13 13 15 14 12 10 8 8 9 8 9 8 9 9 10 10 9 7 12 12 4 6 11 17 17 16 12 6 2 4 5 5 6 6
12 12 11 11 10 9 9 7 5 2 5 2 2 2 3 1 0 1 4 2 4 2 3 5 4 3 2 2 1 3 4 4 4 3 8 7 8 7 9 8 6 5 5 5 8 9 12 13 15 14 15 15 15 15 16 16 13 11 11 11 10 10 9 8 7 9 9 9 9 8 12 12 4 3 6 6 7 8 10 8 7 4 1 4 6 6 7
12 11 11 10 10 9 7 7 5 3 4 2 1 2 1 0 2 3 2 3 3 3 2 4 2 3 3 2 2 3 4 5 6 8 9 9 9 7 6 7 8 7 7 8 9 10 10 10 10 10 11 10 11 13 14 14 13 12 11 11 10 10 10 8 8 8 9 9 8 7 9 3 6 7 4 2 3 3 7 8 7 3 2 2 4 4 7
11 11 11 10 10 10 8 6 4 4 2 4 2 1 1 2 2 0 2 3 3 2 2 2 3 1 3 3 4 5 5 6 6 7 9 6 8 9 7 7 6 6 6 7 8 7 7 6 6 6 7 7 6 7 7 7 9 10 11 11 11 13 10 9 9 8 10 8 9 11 10 12 10 7 1 2 6 6 5 7 4 3 2 2 3 4 7
10 10 10 10 9 8 6 5 3 4 1 5 3 0 1 2 2 2 1 3 3 2 1 3 4 4 4 4 5 6 4 5 6 5 7 7 8 6 6 4 3 6 5 6 5 5 6 5 7 5 5 6 4 1 2 5 2 4 5 6 8 9 12 8 10 9 10 10 10 9 8 10 5 6 3 4 5 3 2 2 5 4 4 3 3 5 8
10 9 10 10 8 6 6 4 3 2 1 4 4 1 0 1 3 2 2 3 3 1 4 4 3 4 5 4 4 4 5 5 5 7 7 5 5 4 4 5 6 5 6 6 4 5 5 5 6 6 5 5 4 4 3 3 3 4 3 4 6 9 11 12 12 10 8 10 11 8 8 5 6 4 5 5 5 1 2 5 8 4 2 4 4 6 8
9 10 9 8 6 6 5 4 3 0 2 4 3 1 0 3 3 2 2 1 2 3 3 3 3 4 5 3 1 2 2 4 5 6 6 5 6 9 6 3 3 3 3 5 4 5 6 6 6 6 5 2 5 3 5 4 1 2 4 6 7 7 8 10 12 13 11 10 11 10 7 6 1 4 6 7 8 2 2 9 4 4 4 5 6 7 9
9 9 8 7 6 6 5 4 3 1 2 5 4 2 1 3 3 3 3 3 3 3 1 3 3 4 4 5 5 4 3 4 4 5 7 8 9 7 4 4 3 1 2 4 3 5 6 6 7 4 4 2 3 1 4 3 2 2 2 3 4 6 7 9 13 13 14 15 12 10 9 9 7 9 10 9 7 5 9 9 5 4 5 5 6 7 9
8 8 7 7 6 6 6 4 2 2 1 4 3 3 3 3 3 3 3 3 3 3 4 2 3 6 6 5 6 4 3 4 5 5 7 7 4 5 7 3 2 3 2 3 2 3 4 5 2 5 6 3 5 2 1 4 2 0 0 4 6 8 7 9 11 13 12 13 14 12 9 2 9 9 10 7 4 7 7 5 3 2 6 6 6 8 9
8 7 7 7 6 6 6 5 2 2 3 4 4 3 2 3 4 5 4 4 3 6 8 5 4 7 3 5 5 5 5 6 6 6 6 6 4 8 8 3 2 2 2 2 3 2 4 4 5 3 5 5 3 3 5 5 2 2 1 2 3 3 4 7 11 10 9 11 13 11 11 3 9 12 9 3 8 3 2 1 2 2 5 5 6 7 8
8 7 6 6 6 7 6 4 2 2 4 5 5 2 3 3 3 5 4 5 5 7 0 5 3 5 6 7 7 8 8 7 4 5 6 8 4 2 4 1 2 2 2 2 3 1 2 1 3 4 4 6 0 2 2 3 3 5 6 4 4 1 6 8 9 8 10 12 13 9 2 6 8 8 4 6 5 4 2 2 3 1 3 5 5 6 7
7 7 7 7 7 7 6 5 3 4 4 7 6 3 3 3 2 2 2 2 5 7 6 10 9 10 9 7 7 7 7 8 8 7 7 8 4 3 3 4 4 2 2 2 3 3 3 3 3 4 6 4 3 6 3 5 3 3 5 3 5 4 4 4 6 3 8 8 8 1 5 5 6 6 3 3 4 3 3 3 5 3 3 5 5 6 8
8 7 7 7 7 7 5 4 4 5 6 8 7 3 2 2 3 3 3 5 5 8 10 10 8 10 10 10 9 5 5 5 6 5 6 6 5 5 5 5 3 4 2 2 3 3 2 2 5 3 6 5 4 5 5 5 4 2 2 8 3 1 6 7 7 6 11 15 11 8 5 4 5 5 4 2 1 2 2 3 4 4 5 5 5 7 7
8 7 7 6 7 6 4 3 3 6 6 8 8 4 3 3 1 2 4 4 3 7 5 6 7 3 5 7 3 3 4 5 5 5 2 5 5 5 3 3 1 3 2 3 1 2 2 3 3 2 7 4 5 6 7 4 4 4 5 2 3 4 5 4 4 6 6 5 4 7 6 5 5 6 6 6 2 3 4 4 4 5 6 6 5 6 8
8 7 7 6 5 6 5 5 4 5 6 7 8 5 3 3 4 4 3 2 1 3 2 2 1 5 4 2 2 2 3 4 1 3 4 6 7 5 5 2 2 3 3 5 4 3 2 3 3 3 5 1 2 5 2 5 1 4 5 1 3 1 2 9 7 6 6 8 7 9 9 8 6 5 5 3 1 3 3 6 7 6 7 6 6 6 6
8 7 7 6 5 4 6 5 6 6 6 6 7 5 4 2 3 3 3 3 3 3 4 3 4 4 2 4 7 6 5 3 2 2 2 2 4 4 6 5 2 5 4 4 4 2 2 3 3 3 3 2 4 4 5 4 7 7 6 4 2 6 8 5 2 6 8 11 11 9 9 9 6 6 6 3 4 8 9 9 10 9 8 8 6 6 7
7 7 6 5 5 6 6 5 5 6 6 5 6 5 5 3 3 5 3 1 3 2 3 3 2 3 7 5 4 5 4 3 2 3 4 4 3 3 3 4 3 2 3 4 2 2 2 0 2 2 2 3 5 6 6 6 4 5 3 2 7 8 6 7 8 9 8 5 1 1 3 4 2 6 8 10 10 12 11 10 11 10 9 8 9 7 7
7 6 6 6 6 7 7 5 6 5 5 5 6 5 4 5 5 6 5 4 3 2 3 4 4 6 9 4 4 5 5 3 2 1 2 3 2 2 0 3 3 4 3 2 2 2 3 4 3 2 3 4 4 3 4 8 7 5 2 5 9 7 8 8 8 7 7 3 4 5 8 11 11 11 11 12 12 11 12 10 10 11 10 9 11 11 9
7 7 6 6 7 7 7 8 7 7 6 7 4 4 5 6 5 5 6 5 4 3 4 6 5 4 2 3 4 2 4 4 1 1 1 2 2 1 1 1 2 2 3 4 4 3 2 2 2 2 2 4 4 5 7 5 5 6 4 10 10 11 12 14 15 15 16 15 13 11 10 10 10 10 11 12 11 12 14 13 12 12 13 12 12 11 10
8 7 6 6 7 8 8 9 8 8 9 6 3 4 5 5 6 7 7 6 5 2 3 3 2 1 3 3 2 1 2 3 1 1 1 1 0 1 1 2 2 2 2 3 2 5 3 2 1 1 2 2 1 3 5 5 6 4 5 11 12 12 12 10 8 8 9 9 10 10 11 12 12 13 12 12 11 10 12 13 11 12 13 12 11 11 8
9 7 6 6 7 8 9 9 10 10 9 5 4 5 4 2 5 6 8 7 5 4 3 2 6 4 4 2 2 4 4 5 2 2 1 1 2 2 1 3 2 3 1 2 2 4 2 2 3 3 2 1 3 2 4 5 6 6 12 16 13 12 13 13 10 9 8 10 9 8 9 11 11 11 12 11 9 7 10 11 11 10 12 12 11 10 10
8 7 7 6 7 9 10 11 11 11 7 6 5 4 5 4 3 7 8 6 5 4 3 4 4 3 2 2 3 3 4 5 5 4 2 2 3 2 4 4 2 1 2 2 3 1 4 3 2 3 4 3 1 3 2 3 8 9 14 14 15 14 13 12 13 12 9 4 4 7 6 6 5 8 9 10 10 10 12 12 12 11 10 10 8 7 9
9 7 5 7 8 9 11 11 12 11 4 6 14 8 8 2 5 8 8 6 4 3 1 3 4 3 2 2 3 5 6 4 4 3 3 3 2 1 3 3 3 2 3 3 3 3 3 3 2 4 3 1 4 3 2 6 6 10 12 11 11 11 10 10 10 10 11 11 11 9 10 11 11 10 10 10 10 11 11 11 12 10 9 10 8 6 6
8 4 4 7 9 9 10 11 10 5 6 5 5 3 3 9 8 7 7 5 2 0 2 3 4 4 3 5 3 5 7 2 4 6 5 4 3 3 2 2 1 1 2 3 2 3 3 0 5 4 2 2 1 1 4 8 13 14 13 14 14 14 11 13 13 12 12 13 12 12 12 11 10 7 8 8 8 9 9 8 8 10 10 9 8 5 5
2 6 8 10 11 10 11 12 7 5 4 2 3 3 5 9 7 8 8 3 4 3 3 3 2 5 5 3 2 4 6 4 3 3 3 4 3 4 2 4 3 1 2 3 2 4 3 4 1 5 8 4 2 3 3 9 13 14 15 14 16 14 12 15 15 16 14 14 13 12 14 13 12 11 11 11 8 8 7 7 7 8 9 8 6 3 3
6 10 11 12 13 12 7 5 5 3 3 1 4 5 6 8 6 7 4 2 3 4 3 2 2 4 3 6 5 3 3 4 1 2 1 3 3 3 3 2 3 2 2 1 4 4 6 5 3 7 7 5 6 4 7 9 12 13 14 14 15 15 15 17 16 16 14 15 15 14 15 16 15 14 13 13 11 7 6 6 6 6 7 7 7 6 4
10 12 15 15 9 4 4 1 2 3 4 5 7 9 9 7 3 2 1 3 3 2 4 3 5 4 4 6 4 3 2 3 4 3 4 3 2 2 5 2 4 4 4 2 0 4 5 4 6 7 7 7 6 7 8 9 10 11 12 13 13 13 14 15 17 16 15 16 18 16 14 15 15 14 14 13 13 12 10 9 7 5 5 5 6 5 4
11 12 6 4 4 5 4 4 1 7 13 13 11 6 3 4 3 2 2 3 2 3 3 3 5 4 1 4 4 2 4 2 1 2 2 1 2 4 3 4 1 2 2 4 4 1 1 3 5 7 7 7 6 9 9 9 8 9 10 12 13 14 14 14 15 16 15 15 16 16 16 15 15 15 14 14 14 13 12 11 11 9 6 3 4 5 6
8 4 4 3 4 2 3 5 6 7 5 4 2 2 4 3 4 4 3 2 2 3 4 4 5 5 5 7 4 5 2 2 4 3 2 4 3 2 4 2 1 3 1 1 1 3 2 5 6 6 7 10 10 11 9 8 7 8 8 9 11 13 13 13 13 13 12 12 12 14 13 11 13 14 14 14 13 12 11 11 11 11 10 10 8 4 3
4 4 2 3 2 3 4 4 2 4 2 3 2 4 1 4 3 2 1 2 2 3 3 4 2 5 6 7 8 5 2 4 4 4 4 1 2 3 2 1 3 3 1 1 2 4 1 4 3 4 7 8 9 9 10 10 9 9 10 10 11 13 14 14 13 12 13 13 13 14 14 14 14 14 14 14 14 14 13 12 11 11 11 11 11 10 10
3 2 3 1 4 3 4 5 4 2 2 3 3 4 2 1 1 2 3 4 4 4 1 5 5 5 1 2 4 6 3 1 1 3 2 3 1 3 4 2 2 2 1 1 4 2 2 2 3 4 6 7 8 8 9 9 9 9 9 10 11 11 13 14 14 14 14 13 13 13 14 14 14 14 13 14 14 14 14 13 12 11 12 11 11 9 7
2 3 4 4 4 4 4 3 3 3 3 3 2 1 1 2 2 2 0 4 5 5 3 4 8 7 8 7 6 5 1 2 2 2 2 3 3 4 4 0 2 1 1 3 3 2 1 2 2 4 5 6 6 7 8 9 9 10 10 11 10 11 12 13 14 14 14 12 11 12 12 13 14 13 13 14 14 14 15 15 14 14 13 12 10 9 9
1 2 2 3 3 3 2 2 4 3 0 1 1 1 2 1 2 4 4 2 1 4 4 2 4 6 4 2 3 1 4 3 2 2 4 3 3 2 2 1 1 1 3 3 1 3 2 2 3 4 5 6 6 7 7 7 8 8 8 8 9 10 11 12 13 13 14 13 12 10 11 12 12 13 13 13 15 16 16 15 16 14 13 13 13 13 12
2 3 4 2 2 2 2 1 2 1 0 0 1 1 4 4 5 4 5 6 6 5 6 8 7 7 7 2 6 2 2 2 3 2 2 2 3 2 2 1 3 3 2 0 1 2 2 3 4 5 6 5 6 6 6 6 6 6 7 8 8 10 11 12 12 13 13 13 13 12 11 12 13 13 13 13 14 15 14 14 14 15 16 15 15 15 14
2 2 1 1 1 1 0 1 1 0 2 2 2 3 4 5 6 5 6 6 5 8 8 6 7 7 8 4 2 1 3 3 2 3 3 2 3 1 4 4 2 2 0 0 1 1 1 3 2 5 7 7 8 8 6 7 6 4 4 6 8 9 10 12 12 12 12 12 13 13 13 12 12 12 13 13 13 13 14 14 14 14 13 13 14 15 15
3 1 1 1 2 1 0 0 0 1 1 1 2 3 3 3 4 5 4 5 6 8 9 9 7 6 7 3 4 5 3 4 4 3 4 3 4 2 3 2 1 2 1 2 2 4 3 3 4 4 4 6 8 7 7 6 6 6 8 9 8 8 9 10 11 11 11 12 12 13 13 12 12 12 12 12 13 13 13 13 13 13 13 14 14 14 15
1 2 1 0 2 0 1 1 1 2 3 1 1 1 2 3 4 4 3 5 7 8 8 7 7 4 6 5 4 2 0 3 3 3 4 4 4 2 1 3 3 3 2 4 3 2 4 4 2 2 4 6 8 7 7 6 7 7 6 3 7 8 9 10 10 10 10 11 12 13 12 12 12 11 11 12 12 12 13 13 14 14 14 14 14 13 13
1 0 0 2 2 1 2 1 1 2 2 2 1 1 1 2 4 5 7 7 6 7 8 8 7 3 3 2 4 5 4 4 4 3 4 3 2 3 3 3 4 3 3 3 4 4 4 3 3 2 4 5 6 7 7 7 7 8 8 7 7 8 8 9 10 9 10 10 10 10 11 12 12 12 11 11 11 12 12 12 13 13 13 14 14 14 14
3 1 1 2 2 2 3 1 3 5 2 1 2 2 2 3 3 5 5 4 5 7 5 5 5 5 4 5 4 4 4 5 3 2 3 3 3 2 3 3 4 5 4 4 6 4 3 3 3 3 3 4 6 7 7 6 7 8 7 6 6 7 7 8 9 10 10 9 8 9 9 10 11 11 12 12 12 11 11 11 12 11 12 14 14 15 15
2 1 2 2 5 4 2 2 4 6 4 2 3 3 1 2 2 4 3 5 5 6 5 3 2 4 4 5 3 4 2 4 3 2 4 5 4 4 4 3 2 3 5 5 5 3 3 3 2 3 4 4 6 6 7 7 7 7 7 7 6 5 6 7 8 8 8 8 8 8 9 9 10 10 12 12 11 10 11 12 11 11 11 12 13 14 14
1 1 3 3 6 7 5 7 8 8 7 6 7 6 4 4 7 5 6 5 8 7 3 6 5 3 3 3 2 2 3 3 3 4 4 5 4 3 3 2 4 5 5 4 3 3 4 3 2 3 4 4 5 5 6 6 6 7 7 7 7 7 7 7 8 7 8 8 8 7 8 8 8 9 10 10 11 12 12 12 12 11 11 11 12 12 13
1 2 4 2 3 6 6 5 8 6 8 10 9 6 4 1 3 2 4 6 7 5 7 5 4 3 2 3 4 3 4 2 4 4 4 4 3 5 4 5 5 4 5 4 3 3 2 2 3 3 4 4 3 4 5 5 6 5 6 7 7 7 8 7 7 8 8 8 8 7 5 6 7 7 8 10 11 12 13 12 12 11 11 9 10 11 12
Wind_Direction
338 336 337 335 335 335 338 342 344 351 349 356 350 314 304 353 14 351 337 340 317 307 89 113 92 78 81 132 102 98 91 49 69 40 76 207 37 248 264 15 283 140 315 341 303 318 289 299 264 330 293 294 11 25 345 341 317 313 247 271 127 306 253 242 249 271 272 276 281 313 278 294 241 222 306 237 223 227 241 240 306 272 219 215 224 232 233
340 334 336 335 337 334 337 340 344 350 7 352 331 317 347 317 330 355 2 346 310 274 44 87 97 100 116 104 91 46 54 29 87 45 54 341 283 329 337 191 312 325 315 287 292 4 289 128 282 245 184 274 78 328 320 353 325 348 31 314 23 287 213 243 256 230 226 241 225 223 168 240 228 222 200 255 319 283 263 297 259 251 238 241 214 232 215
339 337 336 337 337 338 335 339 341 345 358 348 335 327 326 288 217 209 29 13 23 65 13 41 102 112 122 130 124 145 119 35 24 25 52 7 15 259 153 338 338 289 340 277 262 261 279 304 261 302 303 289 73 296 334 328 314 335 6 325 317 283 296 295 230 224 213 209 210 209 207 212 208 245 172 219 237 226 231 233 212 245 234 265 256 234 207
338 338 339 340 341 336 336 336 340 339 348 339 325 323 284 357 356 18 70 41 60 72 47 28 51 122 149 149 69 309 127 123 63 329 86 10 65 7 19 214 275 306 286 278 285 281 259 282 310 298 288 281 238 90 304 304 297 336 324 304 293 289 283 267 272 277 276 338 347 336 328 335 213 184 213 199 216 250 255 260 235 230 226 239 240 272 269
341 341 339 342 342 335 335 337 338 338 334 340 328 294 332 312 18 347 4 296 59 70 35 44 352 60 313 304 339 130 300 108 139 352 271 70 332 89 350 354 278 298 289 296 285 280 291 270 283 283 286 297 297 308 283 285 273 304 272 256 301 272 268 261 265 269 273 284 297 312 305 286 285 294 250 226 216 223 226 220 223 316 261 234 220 235 253
340 341 340 340 343 336 338 339 341 338 327 325 293 7 351 345 42 8 359 316 14 7 45 14 70 67 265 85 240 65 26 26 42 148 74 268 131 281 152 268 341 317 318 315 282 294 286 281 278 305 281 293 286 282 252 265 120 218 267 249 279 315 277 283 282 278 285 289 284 289 291 281 282 279 272 254 242 224 227 229 239 260 237 238 196 348 297
340 339 342 338 340 339 341 344 343 337 321 322 319 359 57 38 50 56 293 309 40 40 41 31 48 81 49 105 352 119 32 94 34 337 323 213 196 314 293 234 307 308 295 281 292 299 288 266 46 291 312 304 315 291 290 267 260 235 249 261 269 278 275 274 297 298 291 284 277 266 260 262 261 258 261 259 250 242 236 239 242 242 244 266 294 281 292
339 338 343 337 338 342 343 346 348 333 324 307 49 37 15 41 355 42 36 64 56 41 50 56 55 83 320 255 66 22 14 43 351 136 293 260 191 301 270 311 306 297 283 263 269 301 297 306 294 315 315 298 277 300 296 298 258 269 282 297 271 287 277 346 313 299 285 283 276 258 246 249 257 257 255 255 252 249 244 248 244 245 247 240 243 259 260
337 338 340 338 341 344 346 346 355 332 331 29 43 62 40 58 46 356 320 58 43 49 35 45 59 102 97 87 83 307 86 15 355 286 263 294 324 334 309 315 301 278 264 262 269 285 287 277 282 292 287 282 305 301 301 305 302 282 271 244 267 255 271 286 294 287 281 271 270 272 259 246 250 254 251 247 243 241 235 235 234 233 229 224 228 231 237
335 337 339 335 343 340 347 350 355 346 316 7 24 58 50 50 71 349 307 40 4 39 56 41 183 74 51 3 62 305 31 338 333 285 132 311 317 307 308 313 302 279 262 267 302 325 297 291 287 286 280 272 268 259 259 263 269 278 270 276 273 272 279 276 279 281 280 284 297 301 289 276 252 243 242 241 241 246 247 240 101 272 257 228 227 227 42
333 336 339 336 343 347 348 353 1 350 332 36 15 58 42 26 18 358 306 317 71 37 40 60 46 61 1 122 282 236 282 306 350 315 100 241 260 262 294 300 302 302 306 348 345 307 296 289 283 274 269 265 262 259 258 255 252 255 264 264 255 257 260 267 270 276 280 296 305 305 286 243 241 254 238 231 230 223 231 233 189 165 246 269 320 319 351
334 335 338 339 343 345 348 347 354 316 321 32 353 11 30 329 320 320 325 36 74 54 51 54 40 73 26 60 280 309 299 294 291 263 293 298 293 283 281 278 283 281 38 330 308 307 298 280 265 256 253 260 264 262 257 257 255 242 241 250 258 256 254 261 268 266 281 290 293 275 247 243 235 125 238 236 259 248 221 85 74 76 131 278 262 275 323
333 336 336 340 341 343 343 346 335 320 263 303 254 16 23 275 352 20 5 316 51 27 46 72 74 58 52 15 346 315 312 292 280 282 279 287 288 273 267 288 281 297 318 309 310 301 295 295 288 273 268 265 254 251 251 250 250 245 242 238 247 253 248 251 253 260 266 268 257 258 241 326 332 232 228 246 185 156 149 110 67 57 31 311 280 305 298
333 331 336 337 340 341 344 350 343 335 283 274 281 352 135 248 332 26 2 318 57 61 345 170 136 86 338 346 320 308 293 283 291 281 277 273 279 281 288 277 292 307 301 309 294 293 286 263 281 266 223 221 231 258 240 249 246 244 241 238 235 246 254 249 259 239 253 251 253 248 297 296 261 204 290 271 221 180 218 214 116 43 48 3 322 316 320
332 329 333 334 338 345 355 348 3 350 311 251 280 216 216 202 230 313 55 285 349 349 314 360 3 350 322 324 337 316 309 316 306 290 285 274 269 281 294 312 294 283 288 286 285 268 276 301 277 278 270 235 237 12 46 246 186 254 267 258 243 236 241 242 247 241 243 258 258 264 254 251 225 69 39 23 14 312 81 225 126 56 49 4 9 353 354
328 327 329 331 339 347 357 12 4 327 312 236 257 272 285 211 213 264 317 339 312 50 57 11 336 311 311 315 332 320 316 311 312 303 287 255 249 284 271 277 288 286 268 262 275 288 274 268 279 276 291 327 359 289 221 32 277 184 185 252 250 236 237 241 241 249 243 241 252 249 248 235 63 73 1 356 328 359 250 217 220 87 14 43 20 16 11
325 324 329 334 348 349 1 1 2 187 185 233 292 275 271 164 215 226 227 222 263 338 353 329 328 319 294 291 200 263 283 301 328 314 316 321 321 308 309 311 286 272 277 274 251 253 247 243 268 276 274 246 258 303 311 262 277 267 212 247 258 256 227 222 230 237 237 245 243 247 234 251 130 293 318 344 326 340 251 228 208 69 49 41 39 23 18
321 322 327 333 343 349 348 357 343 324 241 230 276 287 270 173 219 221 224 256 307 292 359 345 297 283 299 337 300 315 291 262 254 259 271 294 297 303 330 345 318 157 260 259 253 257 266 265 271 290 289 99 311 270 269 85 234 253 248 290 277 248 235 225 236 230 225 228 247 260 262 261 302 331 329 328 343 298 211 219 92 92 61 52 50 34 16
318 321 330 327 337 336 340 339 315 286 157 199 246 260 227 206 179 224 317 285 256 294 25 360 298 285 294 293 277 288 279 289 290 286 288 295 313 339 322 1 13 274 190 252 261 255 261 271 295 264 274 178 178 268 352 243 253 207 104 264 245 242 247 244 239 237 232 230 236 242 258 315 7 310 313 331 275 212 219 75 259 26 71 52 50 39 25
315 318 322 325 323 322 321 323 294 245 180 204 259 274 50 179 194 208 224 263 281 284 298 313 304 297 302 269 281 266 262 244 235 245 270 275 336 340 314 249 117 285 247 224 244 222 263 258 268 281 250 263 267 353 265 249 174 215 231 256 264 301 275 247 229 223 221 224 238 238 243 102 7 325 283 256 260 50 30 329 183 72 48 35 45 39 27
313 314 320 318 315 310 308 305 273 206 191 188 236 260 261 185 186 207 234 269 295 304 23 102 318 298 289 273 256 255 251 271 290 262 268 276 325 336 285 339 63 349 268 236 262 196 260 253 269 267 324 305 64 215 279 312 261 183 215 227 257 165 258 271 253 221 215 210 219 228 302 20 0 341 324 32 22 31 89 298 197 25 23 17 7 17 13
306 309 306 310 306 301 298 281 242 212 210 185 223 221 257 142 199 177 249 279 263 255 287 323 317 283 275 270 274 267 264 262 260 256 270 284 273 243 282 267 234 215 254 286 261 250 220 240 302 270 279 291 295 261 316 282 281 140 190 183 272 150 248 292 302 288 245 235 240 144 46 17 3 340 4 34 31 19 3 351 306 296 351 350 352 352 354
305 305 307 298 299 294 288 264 231 203 199 183 211 232 242 186 202 179 201 247 240 261 271 273 265 259 250 247 246 262 276 269 271 244 238 248 273 259 257 263 259 170 197 200 269 301 316 262 250 308 302 294 316 325 279 266 294 210 263 177 275 263 265 276 273 276 309 285 269 283 294 350 352 320 304 345 2 13 8 326 312 347 330 339 336 335 336
302 301 298 299 288 286 274 263 226 200 207 195 218 214 222 240 238 200 227 239 271 305 261 211 263 27 10 13 354 199 235 249 258 279 225 211 250 286 230 182 195 197 209 191 157 252 282 277 297 336 271 299 331 286 296 290 297 358 290 233 207 233 259 277 268 314 309 256 231 253 279 324 309 309 290 277 325 353 356 321 311 320 316 319 333 330 331
301 301 297 290 287 268 255 245 231 200 201 203 217 245 288 244 217 219 243 282 268 313 336 305 49 36 20 333 261 334 5 331 283 234 189 196 237 275 343 31 199 274 229 184 141 176 174 266 256 219 254 16 328 287 307 286 220 38 311 15 336 226 207 290 237 251 257 277 306 299 296 299 290 271 255 257 292 344 326 325 313 309 300 307 328 324 318
300 294 293 284 269 260 249 241 222 188 187 202 244 223 212 233 151 201 235 249 267 267 316 353 86 122 352 5 32 350 335 322 51 134 189 221 236 258 298 305 259 166 215 170 183 244 290 251 283 297 287 339 7 299 308 342 302 303 271 289 147 303 305 259 308 274 267 272 274 275 292 288 261 209 214 231 280 303 305 299 295 287 287 295 303 327 334
299 296 285 277 260 246 234 217 193 194 192 193 212 221 227 223 198 193 203 228 263 210 220 246 360 48 21 2 20 342 11 360 117 112 140 177 223 224 249 259 331 101 126 122 181 150 80 48 295 330 311 312 330 290 284 283 287 308 298 342 356 320 288 315 303 273 259 265 341 40 281 254 224 219 230 252 292 309 306 304 293 287 284 293 296 308 326
297 290 282 265 252 235 225 205 200 185 174 205 229 225 230 232 214 212 220 226 260 274 309 303 312 327 324 275 360 359 18 5 346 114 130 122 174 154 89 63 50 74 89 118 99 43 27 22 23 351 309 317 314 286 303 288 282 265 232 337 340 310 301 306 290 285 285 279 249 286 284 281 275 276 277 281 285 289 289 286 287 289 289 290 294 298 304
293 286 272 257 246 234 221 210 190 182 167 214 201 224 234 233 229 216 220 214 247 275 268 280 284 273 300 41 343 7 15 343 322 323 325 138 146 177 307 354 10 37 96 94 107 88 26 53 356 1 344 341 297 300 328 322 334 319 340 331 322 307 293 283 281 278 266 267 270 268 264 265 279 278 281 285 285 282 283 284 281 283 285 288 288 289 288
290 284 273 242 224 224 215 205 198 171 184 191 185 215 227 178 202 207 205 208 211 259 277 314 274 156 351 262 154 160 247 283 251 59 31 333 122 234 2 311 302 308 348 43 47 60 103 89 164 226 153 194 316 314 301 310 306 309 336 329 314 313 304 303 309 284 275 283 287 290 287 284 280 281 283 283 282 284 284 283 287 286 286 286 286 285 277
290 282 269 246 229 224 214 202 187 164 197 192 210 239 268 277 139 192 175 197 190 228 280 248 259 323 285 198 225 229 215 227 211 153 163 6 286 297 296 272 265 287 261 117 78 76 126 73 41 27 163 356 341 287 317 317 329 324 338 341 341 333 331 334 336 331 279 260 265 273 275 274 276 276 273 274 277 283 284 284 286 286 289 292 284 278 276
292 271 247 238 229 212 201 192 178 175 197 208 242 311 1 21 47 137 164 197 173 215 245 287 262 203 247 192 184 201 220 234 246 198 173 206 241 247 251 267 309 311 324 341 70 133 56 78 42 54 19 8 341 324 314 350 1 341 339 348 349 343 335 334 347 345 1 4 302 275 267 289 307 306 302 302 295 283 281 286 287 286 286 282 275 268 267
302 288 237 219 214 202 193 188 182 189 207 322 328 284 254 253 79 128 174 163 199 221 254 264 297 332 274 155 130 212 194 191 213 200 219 192 232 231 256 228 265 249 162 235 55 48 34 18 16 42 74 50 341 343 343 12 2 343 344 339 342 337 333 347 347 343 357 6 5 354 348 334 328 324 307 297 289 287 284 285 286 283 278 275 275 263 253
313 291 195 185 179 172 170 176 177 220 309 277 240 202 154 149 159 183 176 202 252 336 256 273 304 305 323 118 226 148 199 208 214 199 220 171 213 228 247 253 229 266 33 347 102 214 121 104 35 48 120 41 30 333 11 342 352 3 355 355 353 349 347 2 11 7 10 10 7 1 357 346 334 325 322 315 299 287 282 280 282 281 272 266 278 268 261
63 120 137 146 149 145 144 149 157 207 257 269 264 57 96 164 175 175 210 225 254 203 225 215 263 299 320 268 242 156 186 205 228 196 257 146 177 221 212 237 116 219 121 270 53 17 41 50 286 24 21 358 7 8 356 334 350 2 5 359 360 353 351 6 8 6 13 13 11 7 2 0 0 357 346 348 351 336 309 296 284 273 270 255 253 292 312
127 128 129 131 136 142 141 196 226 213 217 260 51 95 116 150 178 184 205 248 280 308 293 334 284 299 317 316 345 111 191 241 287 154 281 103 193 215 237 262 211 106 45 5 44 17 38 358 340 42 14 26 25 359 347 346 354 1 10 7 8 7 4 360 358 357 4 10 14 12 12 9 7 2 356 1 359 5 349 320 299 283 277 280 267 261 256
139 130 135 147 159 197 213 183 146 242 7 62 96 109 139 154 107 191 176 259 219 278 277 299 275 290 319 320 303 57 323 294 179 204 149 198 198 167 187 171 209 160 156 104 166 42 37 318 27 40 32 24 6 356 3 0 3 1 7 10 13 12 7 3 0 0 2 9 14 14 12 11 10 6 3 6 4 9 16 11 356 332 310 291 280 266 267
140 154 162 192 213 231 193 151 119 94 99 108 135 141 146 224 200 190 218 235 201 200 230 238 268 306 259 261 310 141 116 262 336 257 195 170 126 222 170 238 95 190 189 146 106 23 14 18 39 35 38 36 31 20 6 9 12 7 9 10 14 13 15 13 5 3 360 4 15 17 13 11 10 7 5 3 8 13 14 13 13 7 346 308 266 265 272
178 195 231 236 269 305 2 79 111 158 160 136 223 245 198 196 224 220 188 157 168 221 192 233 301 332 325 307 347 147 283 313 288 228 292 132 245 211 221 238 110 259 170 146 76 292 86 51 36 30 25 11 15 13 1 4 10 12 14 10 6 7 14 15 17 12 1 3 12 19 18 15 10 8 8 8 9 16 18 16 12 12 14 18 12 339 252
219 227 257 257 284 52 91 104 206 198 191 241 192 252 283 176 262 338 103 255 213 173 186 276 324 313 316 324 327 334 109 277 326 337 333 226 128 307 51 250 143 226 254 79 126 211 33 56 32 24 27 13 11 4 3 5 9 9 10 13 15 7 15 18 20 15 11 12 10 15 19 21 20 18 13 8 10 14 19 24 23 15 12 15 18 17 18
211 261 240 311 82 133 134 151 175 222 233 222 222 209 260 250 178 340 284 298 342 26 172 309 299 297 183 274 281 299 86 359 308 293 295 276 169 243 234 321 64 245 44 113 121 108 93 62 42 31 30 19 11 8 0 6 7 5 11 10 11 11 13 21 22 21 18 14 11 9 14 19 23 22 17 12 13 17 19 23 29 27 23 16 17 18 15
17 350 44 74 115 120 145 175 208 227 215 234 276 310 318 282 281 225 255 327 9 335 335 343 321 333 325 329 322 307 291 91 290 261 262 270 130 285 5 100 158 312 293 62 105 126 104 60 19 37 31 26 13 15 9 6 3 7 12 10 11 8 11 16 17 23 24 24 19 14 12 17 23 23 22 21 21 21 21 24 28 29 29 28 24 23 22
189 258 207 181 184 190 215 231 176 236 334 3 17 340 316 322 25 348 355 22 59 290 345 280 287 306 268 206 257 107 350 29 322 244 248 334 87 205 280 316 281 289 50 160 202 96 72 57 38 47 32 28 13 16 19 3 355 359 14 13 11 4 12 17 16 18 22 25 27 23 19 19 22 25 26 25 23 26 26 27 27 28 29 29 27 26 27
147 183 221 178 229 167 218 261 203 213 287 347 310 334 333 350 27 358 344 16 346 321 352 330 336 335 331 23 314 11 220 183 193 280 256 222 283 326 312 314 14 78 214 276 46 75 61 82 49 35 6 5 23 15 12 8 4 355 8 9 12 13 11 14 17 18 20 21 24 26 27 24 20 21 24 28 27 27 26 24 25 33 34 33 33 28 26
214 202 225 226 232 149 178 78 226 241 326 36 286 333 351 348 357 350 360 354 321 330 326 330 328 328 310 347 354 248 250 346 126 282 7 356 285 11 322 6 38 148 68 57 50 74 94 75 89 37 2 355 8 12 5 2 351 2 355 0 16 17 12 14 15 16 19 19 21 22 26 25 24 22 24 26 29 32 31 28 26 31 33 33 34 34 27
224 280 254 280 324 297 298 341 314 301 152 292 316 354 333 356 339 342 5 338 328 335 343 339 331 319 308 349 311 347 346 315 297 13 352 287 313 6 29 271 222 327 19 27 3 8 28 22 22 17 330 347 1 357 1 2 346 349 21 13 4 14 20 18 17 16 17 17 21 23 27 28 27 22 21 23 25 26 30 35 35 35 38 40 35 34 36
276 215 262 278 272 218 235 297 357 11 356 306 307 334 321 349 343 315 330 331 335 345 328 330 310 318 320 333 319 215 2 344 323 23 315 328 11 4 181 298 2 1 18 11 0 8 355 53 84 18 344 351 350 0 3 2 357 6 62 349 349 13 18 23 19 19 19 17 21 27 30 31 32 30 24 23 24 25 27 32 36 39 41 45 43 41 40
271 12 271 261 257 248 257 97 17 266 229 280 302 278 348 317 297 16 26 358 338 330 337 327 326 312 241 154 257 333 357 352 337 39 11 347 356 15 4 5 11 10 27 360 11 4 1 45 59 38 1 355 353 356 9 6 9 8 15 20 5 13 18 22 23 19 20 24 19 23 30 33 35 36 35 30 25 25 27 32 34 36 37 39 44 45 43
319 283 270 283 296 289 278 349 284 288 314 202 219 229 234 284 23 50 11 340 325 331 324 320 341 306 344 360 327 356 6 7 357 26 327 20 23 29 346 35 4 346 12 3 355 11 18 17 63 51 355 359 359 7 7 14 13 11 17 22 14 12 21 23 25 22 17 22 31 27 29 33 35 39 40 35 33 27 28 32 35 39 39 40 40 43 44
238 229 220 246 257 235 263 268 257 275 285 263 270 271 260 302 61 68 21 322 324 309 293 216 230 309 355 346 343 356 23 24 358 353 355 23 17 10 32 29 15 344 355 12 14 20 16 28 21 35 351 2 12 5 2 14 17 12 8 10 12 20 29 22 26 23 22 20 20 25 35 36 37 39 41 42 40 39 38 37 38 39 39 39 41 42 42
214 272 280 298 302 326 317 297 313 325 325 335 327 329 328 5 55 18 345 313 298 298 340 6 348 344 346 5 345 341 33 339 315 16 2 14 359 357 50 359 14 17 14 20 13 22 14 2 17 8 356 6 14 3 359 8 15 9 3 6 9 9 18 23 22 20 19 20 28 28 31 37 36 39 47 50 49 45 46 43 40 40 41 41 40 41 43
235 250 282 304 286 297 304 319 46 14 340 360 345 321 294 60 71 303 273 276 285 333 3 357 347 359 346 1 6 336 295 307 353 352 15 56 338 353 17 5 8 8 8 1 14 13 346 353 9 4 359 358 8 356 356 4 7 2 0 3 14 14 17 16 19 21 17 15 20 26 36 39 33 35 41 45 46 47 47 45 41 40 39 40 44 45 47